"Pseudo-MPEC" for C1511N2

Created 2019 Oct 11 16:07:09 UT using Find_Orb

Click here for an explanation of pseudo-MPECs

 
 Astrometry: 
     C1511N2  C2019 10 08.43674 04 44 48.20 +18 09 29.1    ~A8BM 21.6 GVNEOCPG96
     C1511N2  C2019 10 08.44195 04 44 49.15 +18 09 27.5    ~A8BM 21.5 GVNEOCPG96
     C1511N2  C2019 10 08.44716 04 44 50.14 +18 09 26.4    ~A8BM 21.7 GVNEOCPG96
     C1511N2  C2019 10 08.45237 04 44 51.06 +18 09 24.9    ~A8BM 21.4 GVNEOCPG96
     C1511N2  C2019 10 08.47787 04 44 55.78 +18 09 17.8    ~A8C7 21.5 GVNEOCPG96
     C1511N2  C2019 10 08.48231 04 44 56.59 +18 09 16.1    ~A8C7 21.6 GVNEOCPG96
     C1511N2  C2019 10 08.48737 04 44 57.53 +18 09 15.0    ~A8C7 21.6 GVNEOCPG96
     C1511N2  C2019 10 08.49182 04 44 58.35 +18 09 13.6    ~A8C7 21.3 GVNEOCPG96
     C1511N2 KC2019 10 09ox)UAstrometrygt#%![90SOcP8CQOAojj1redacted;r`PfU)IdH21
     C1511N2 KC2019 10 09JCAPDCfclickQOP[gs2o[a_l3here9R=Yafor\%explanationKFH21
     C1511N2  C2019 10 10.33634204 50 53.82 +17 59 55.2    ~AA9M 22.2 GVNEOCPH01
     C1511N2  C2019 10 10.34065704 50 54.65 +17 59 54.1    ~AA9M 21.5 GVNEOCPH01
     C1511N2  C2019 10 10.35521704 50 57.40 +17 59 49.5    ~AA9M 20.5 GVNEOCPH01
     C1511N2  C2019 10 10.35881904 50 58.10 +17 59 48.5    ~AA9M 21.4 GVNEOCPH01
     C1511N2  C2019 10 11.34411 04 54 10.76 +17 54 14.4    ~AB8q       VNEOCPI52
     C1511N2  C2019 10 11.34745 04 54 11.38 +17 54 11.9    ~AB8q       VNEOCPI52
     C1511N2  C2019 10 11.35078 04 54 12.00 +17 54 10.6    ~AB8q 21.7 GVNEOCPI52
     C1511N2  C2019 10 11.35411 04 54 12.65 +17 54 09.6    ~AB8q 21.5 GVNEOCPI52

Station data:
(G96) Mt. Lemmon Survey  (N32.442754 W110.788720)  US/Arizona.  Observers T.
   A. Pruyne, B. M. Africano, E. J. Christensen, G. A. Farneth, D. C. Fuls,
   A. R. Gibbs, A. D. Grauer, H. Groeller, J. A. Johnson, R. A. Kowalski, S.
   M. Larson, G. J. Leonard, D. Rankin, R. L. Seaman, F. C. Shelly. 1.5-m
   reflector + 10K CCD.
(H01) Magdalena Ridge Observatory, Socorro  (N33.984833 W107.189333)  US/New
   Mexico.  Observers W. H. Ryan, E. V. Ryan. Measurer W. H. Ryan. 2.4-m
   f/8.9 reflector + CCD.
(H21) Astronomical Research Observatory, Westfield  (N39.483057 W87.968270)
   US/Illinois. 0.76-m f/3.0 astrograph + CCD.
(I52) Steward Observatory, Mt. Lemmon Station  (N32.442547 W110.788920)
   US/Arizona.  Observers T. A. Pruyne, B. M. Africano, E. J. Christensen, G.
   A. Farneth, D. C. Fuls, A. R. Gibbs, A. D. Grauer, H. Groeller, J. A.
   Johnson, R. A. Kowalski, S. M. Larson, G. J. Leonard, D. Rankin, R. L.
   Seaman, F. C. Shelly. 1.0-m reflector + CCD.

Orbital elements:  C1511N2
   Perihelion 2019 Dec 17.959095 +/- 2.44 TT = 23:01:05 (JD 2458835.459095)
Epoch 2019 Oct 11.0 TT = JDT 2458767.5   Earth MOID: 0.1645   Ma: 0.0155
M 341.72464221 +/- 4.4              (J2000 ecliptic)          AutoNEOCP
n   0.26891702 +/- 0.0615           Peri.  263.89471 +/- 3.1
a   2.37715325 +/- 0.355            Node   192.90477 +/- 1.2
e   0.5264005 +/- 0.0637            Incl.    4.51914 +/- 0.27
P   3.67                   H 20.9   G  0.15   U 10.9  
q 1.12581844 +/- 0.0241    Q 3.62848806 +/- 0.86
From 18 observations 2019 Oct. 8-11; mean residual 0".27
Residuals in arcseconds: 
191008 G96  .12+  .01+    191008 G96  .04+  .02-    191010 H01  .08+  .07-    
191008 G96  .03-  .16-    191008 G96  .03+  .16-    191010 H01  .33+  .06+    
191008 G96  .39+  .17+    191009 H21  .29-  .15+    191011 I52  .25+  1.1+    
191008 G96  .18-  .10+    191009 H21  .24-  .16+    191011 I52  .04-  .27-    
191008 G96  .08+  .10+    191010 H01  .04+  .24-    191011 I52  .30-  .45-    
191008 G96  .05-  .35-    191010 H01  .21+  .00     191011 I52  .14-  .33-    

Ephemerides (geocentric):
Date (UTC) HH   RA              Dec         delta   r     elong  mag " sig PA
---- -- -- --  -------------   -----------  ------ ------ -----  --- ---- ---
2019 10 11 16  04 55 13.592   +17 52 22.99  .52845 1.3609 123.1 21.7 .313 109
2019 10 11 17  04 55 21.811   +17 52 07.86  .52809 1.3606 123.1 21.7 .295 106
2019 10 11 18  04 55 30.034   +17 51 52.69  .52772 1.3604 123.1 21.7 .276 102
2019 10 11 19  04 55 38.261   +17 51 37.47  .52736 1.3601 123.1 21.7 .258  98
2019 10 11 20  04 55 46.491   +17 51 22.21  .52700 1.3599 123.1 21.7 .241  93
2019 10 11 21  04 55 54.726   +17 51 06.89  .52663 1.3596 123.1 21.7 .226  87
2019 10 11 22  04 56 02.964   +17 50 51.53  .52627 1.3594 123.1 21.7 .212  81
2019 10 11 23  04 56 11.207   +17 50 36.12  .52591 1.3591 123.2 21.7 .202  73
2019 10 12 00  04 56 19.453   +17 50 20.65  .52555 1.3589 123.2 21.7 .195  64
2019 10 12 01  04 56 27.703   +17 50 05.15  .52518 1.3586 123.2 21.7 .192  55
2019 10 12 02  04 56 35.957   +17 49 49.59  .52482 1.3584 123.2 21.7 .195  45
2019 10 12 03  04 56 44.214   +17 49 33.98  .52446 1.3582 123.2 21.7 .203  36
2019 10 12 04  04 56 52.476   +17 49 18.33  .52410 1.3579 123.2 21.7 .216  27
2019 10 12 05  04 57 00.742   +17 49 02.62  .52374 1.3577 123.2 21.7 .233  20
2019 10 12 06  04 57 09.011   +17 48 46.87  .52338 1.3574 123.2 21.7 .255  13
2019 10 12 07  04 57 17.285   +17 48 31.07  .52302 1.3572 123.2 21.7 .280   7
2019 10 12 08  04 57 25.562   +17 48 15.22  .52266 1.3569 123.2 21.7 .308   2
2019 10 12 09  04 57 33.843   +17 47 59.32  .52230 1.3567 123.2 21.7 .338 178
2019 10 12 10  04 57 42.128   +17 47 43.37  .52194 1.3564 123.2 21.7 .371 174
2019 10 12 11  04 57 50.417   +17 47 27.38  .52158 1.3562 123.3 21.7 .406 171
2019 10 12 12  04 57 58.710   +17 47 11.33  .52122 1.3559 123.3 21.7 .442 169
2019 10 12 13  04 58 07.007   +17 46 55.24  .52086 1.3557 123.3 21.7 .480 166
2019 10 12 14  04 58 15.308   +17 46 39.09  .52050 1.3554 123.3 21.7 .519 164
2019 10 12 15  04 58 23.613   +17 46 22.90  .52014 1.3552 123.3 21.7 .560 162
2019 10 12 16  04 58 31.922   +17 46 06.66  .51978 1.3549 123.3 21.7 .602 161
2019 10 12 17  04 58 40.234   +17 45 50.37  .51942 1.3547 123.3 21.7 .646 159
2019 10 12 18  04 58 48.551   +17 45 34.03  .51906 1.3544 123.3 21.7 .690 158
2019 10 12 19  04 58 56.871   +17 45 17.63  .51871 1.3542 123.3 21.7 .736 157
2019 10 12 20  04 59 05.196   +17 45 01.20  .51835 1.3539 123.3 21.7 .783 156
2019 10 12 21  04 59 13.524   +17 44 44.71  .51799 1.3537 123.3 21.7 .831 155
2019 10 12 22  04 59 21.856   +17 44 28.17  .51763 1.3534 123.3 21.7 .880 154
2019 10 12 23  04 59 30.193   +17 44 11.58  .51728 1.3532 123.4 21.7 .931 153
2019 10 13 00  04 59 38.533   +17 43 54.94  .51692 1.3529 123.4 21.7 .982 152
2019 10 13 01  04 59 46.877   +17 43 38.25  .51656 1.3527 123.4 21.7 1.04 152
2019 10 13 02  04 59 55.225   +17 43 21.52  .51621 1.3525 123.4 21.7 1.09 151
2019 10 13 03  05 00 03.577   +17 43 04.73  .51585 1.3522 123.4 21.7 1.14 150
2019 10 13 04  05 00 11.933   +17 42 47.89  .51549 1.3520 123.4 21.7 1.20 150
2019 10 13 05  05 00 20.293   +17 42 31.00  .51514 1.3517 123.4 21.7 1.26 149
2019 10 13 06  05 00 28.657   +17 42 14.07  .51478 1.3515 123.4 21.7 1.32 149
2019 10 13 07  05 00 37.025   +17 41 57.08  .51443 1.3512 123.4 21.7 1.37 148
2019 10 13 08  05 00 45.397   +17 41 40.04  .51407 1.3510 123.4 21.7 1.44 148
2019 10 13 09  05 00 53.772   +17 41 22.96  .51372 1.3507 123.4 21.7 1.50 147
2019 10 13 10  05 01 02.152   +17 41 05.82  .51337 1.3505 123.4 21.7 1.56 147
2019 10 13 11  05 01 10.536   +17 40 48.63  .51301 1.3502 123.5 21.7 1.62 146
2019 10 13 12  05 01 18.924   +17 40 31.39  .51266 1.3500 123.5 21.7 1.69 146
2019 10 13 13  05 01 27.315   +17 40 14.11  .51230 1.3497 123.5 21.7 1.76 145
2019 10 13 14  05 01 35.711   +17 39 56.77  .51195 1.3495 123.5 21.7 1.82 145
2019 10 13 15  05 01 44.111   +17 39 39.38  .51160 1.3492 123.5 21.7 1.89 145